Wind_Speed
6 4 8 12 10 12 5 6 12 16 16 4 11 8 10 15 11 1 18 23 31 37 46 48 49 52 53 50 50 48 47 44 43 42 38 37 38 35 33 29 25 26 22 28
4 6 13 11 8 11 10 10 13 12 8 2 8 9 6 6 9 12 9 9 36 43 41 47 48 51 57 56 53 51 49 47 47 45 41 39 39 40 37 34 30 27 26 29
6 11 12 6 12 12 11 6 6 5 4 4 2 8 7 11 11 9 6 9 8 5 14 43 45 56 59 58 58 55 53 48 49 46 45 42 41 41 40 40 36 33 29 27
5 4 7 9 7 4 2 3 3 9 7 6 5 5 8 5 9 5 7 12 24 23 19 14 45 53 60 61 60 58 56 53 49 49 48 47 46 48 47 45 44 41 35 30
8 7 11 10 8 2 8 3 4 4 6 4 8 3 8 6 8 8 9 21 12 16 20 18 10 23 41 57 59 62 60 58 54 52 49 47 46 43 43 42 41 41 39 34
8 10 4 10 9 4 5 3 7 5 4 3 8 5 4 6 7 8 10 19 24 18 12 10 5 9 41 57 61 60 63 59 57 55 52 48 46 43 41 39 37 37 38 36
7 3 4 10 9 10 10 6 4 5 5 6 2 4 7 6 5 3 7 22 28 30 21 19 13 11 9 36 47 55 60 63 57 56 54 50 46 43 40 38 34 35 33 35
3 8 6 9 4 5 8 5 4 6 4 8 5 2 3 6 7 4 14 26 28 30 30 26 23 23 14 10 25 31 34 42 52 57 55 51 46 44 40 37 34 32 32 27
2 5 5 8 6 3 10 7 5 2 2 3 2 4 4 3 4 10 15 19 24 28 30 22 18 16 15 7 14 14 19 30 39 41 45 49 46 44 41 38 34 31 30 28
0 3 3 5 7 2 2 6 6 4 4 4 5 1 4 6 7 8 11 14 14 21 25 24 21 16 5 2 14 13 11 8 27 40 47 48 45 45 40 39 35 33 32 30
2 3 7 5 4 5 9 6 4 2 3 2 2 5 6 4 3 7 7 16 14 16 15 13 18 14 14 12 4 15 14 11 22 31 44 47 46 45 42 41 38 37 34 32
3 5 1 6 6 10 6 4 3 3 7 3 3 6 1 3 1 3 8 15 13 12 7 8 9 11 10 14 8 15 29 33 39 28 37 43 40 45 43 42 42 40 36 33
3 2 4 9 7 7 3 5 3 2 2 5 2 6 3 4 2 3 5 12 10 11 13 16 16 12 12 13 7 16 30 39 44 31 36 42 43 42 42 43 41 38 39 34
7 3 5 5 6 5 7 13 10 1 1 4 5 4 3 5 6 5 7 10 9 4 4 10 7 13 14 12 5 20 20 41 49 31 32 36 36 35 39 36 37 37 39 40
4 1 1 4 5 5 9 12 13 10 9 4 5 4 4 6 6 9 11 8 5 4 6 6 9 10 7 13 10 11 11 23 22 28 23 25 14 14 26 33 33 27 33 35
3 2 1 3 7 8 10 9 7 5 4 2 3 4 4 10 5 2 6 7 9 4 7 3 5 9 6 9 9 12 13 7 5 8 10 12 11 27 24 12 21 27 20 24
3 3 2 6 7 8 6 3 3 2 2 3 3 5 6 3 4 5 9 7 9 6 5 5 6 6 9 5 5 6 5 7 7 9 7 9 9 13 21 19 18 22 27 20
6 3 4 6 2 6 4 3 1 5 5 4 6 7 8 4 2 1 1 5 7 3 9 7 6 6 9 4 3 2 2 5 7 8 9 7 8 7 12 13 16 17 13 13
10 6 2 3 5 5 2 2 1 1 5 7 5 9 10 5 2 4 4 4 5 5 9 11 10 10 10 7 6 6 6 6 6 7 8 10 7 4 7 6 9 7 8 9
7 5 5 3 3 6 5 3 3 5 3 2 2 6 7 12 4 4 8 4 3 7 8 10 10 12 13 11 7 9 12 12 15 15 13 8 8 9 5 3 6 6 7 17
3 3 3 3 2 7 3 6 1 2 5 5 2 9 10 2 7 12 8 3 2 7 7 8 9 13 12 10 9 14 15 18 18 18 17 17 15 13 11 8 5 6 5 7
1 0 2 2 4 6 5 2 3 6 4 10 16 14 14 15 17 11 9 8 4 9 14 10 14 14 13 12 12 17 18 16 17 16 16 17 17 19 17 12 14 14 6 4
2 6 3 7 5 7 9 8 7 8 12 9 12 10 12 14 12 7 3 6 6 7 9 9 11 8 10 8 8 9 11 11 13 13 12 14 14 16 18 21 17 17 18 15
4 6 4 3 3 7 8 9 9 8 11 13 12 10 8 8 10 12 10 8 12 14 13 10 10 6 7 7 6 6 6 6 7 7 8 9 10 12 12 13 16 18 20 15
7 1 2 4 6 7 3 9 8 10 10 11 9 8 6 4 7 7 10 9 10 13 13 12 9 7 5 3 5 6 4 2 1 4 6 7 7 9 10 10 10 13 14 14
5 6 4 6 8 5 4 3 8 12 8 6 6 5 1 1 5 8 11 11 11 12 12 10 9 6 4 2 3 3 5 5 5 3 3 5 4 4 6 4 6 7 8 6
Wind_Direction
293 108 241 239 210 231 223 248 265 273 278 267 278 281 283 300 333 131 186 193 214 213 217 216 219 215 212 212 213 213 215 212 210 208 207 209 208 210 217 220 218 213 215 215
353 258 247 244 230 234 243 260 271 282 258 73 308 297 304 330 314 317 321 195 212 215 226 220 215 210 214 214 214 214 215 216 212 215 214 215 212 214 220 224 223 218 220 222
196 246 270 256 262 249 256 229 246 265 310 315 30 328 330 311 315 41 44 359 76 73 240 237 209 208 217 215 215 216 215 217 215 215 214 215 217 216 219 225 225 221 221 225
246 262 319 311 308 197 323 245 341 321 19 309 90 287 308 286 295 336 351 355 47 60 46 223 205 209 212 221 222 217 217 216 217 216 217 217 217 215 218 220 222 226 229 228
254 302 306 303 256 317 249 243 294 298 322 21 316 72 270 18 335 325 330 2 57 56 64 85 178 221 220 225 223 223 215 219 216 218 218 219 220 219 220 219 221 222 225 227
254 293 291 263 289 263 258 5 19 37 75 10 268 132 325 350 297 333 358 5 353 6 44 4 143 343 224 228 228 224 218 219 218 217 218 220 221 216 219 220 219 221 222 226
321 284 283 23 19 351 29 44 329 347 357 234 258 65 223 269 322 322 310 357 7 1 8 12 27 357 4 225 227 225 219 219 221 220 220 221 223 221 220 219 217 215 219 223
146 321 15 356 70 250 283 152 159 275 243 272 334 254 218 226 254 327 19 27 21 24 16 12 20 28 7 209 221 223 221 220 222 224 223 222 225 225 223 223 221 219 221 225
106 275 319 48 343 19 324 352 229 230 22 61 240 353 316 310 338 3 20 31 30 16 20 18 4 15 24 212 196 214 228 230 229 229 225 225 226 227 224 225 226 227 228 232
246 323 299 318 18 18 100 274 346 8 339 306 311 204 240 319 326 335 359 2 14 0 4 7 7 349 336 256 196 183 196 246 246 235 235 234 232 231 226 226 226 228 231 234
86 92 296 26 35 303 338 342 7 113 147 202 240 262 219 227 285 315 338 2 10 37 15 18 12 333 319 222 213 231 263 296 301 255 236 237 235 234 230 227 225 228 230 233
206 138 249 253 262 268 189 258 113 93 298 246 177 268 116 111 333 335 20 0 53 58 39 22 7 358 298 245 186 242 251 276 319 264 236 234 233 235 235 228 224 225 229 232
200 1 6 346 349 354 22 344 9 190 89 253 174 275 96 40 19 237 330 13 50 86 56 39 28 28 11 344 356 268 279 264 301 268 232 232 232 233 233 234 226 226 230 234
43 87 144 184 228 254 309 322 323 75 355 264 231 271 274 317 310 329 2 25 48 96 337 351 44 51 38 35 332 6 283 284 295 254 230 223 228 227 228 224 223 222 224 229
100 155 13 266 257 289 295 309 320 316 281 236 269 206 286 281 288 312 321 319 324 333 3 16 49 85 86 77 114 106 25 279 256 232 232 223 209 219 227 223 224 219 221 218
4 254 312 274 290 280 288 315 331 327 352 16 295 281 240 299 309 311 340 348 13 57 85 58 46 78 59 54 71 97 119 189 124 153 136 147 142 271 303 226 217 219 210 215
174 167 60 271 275 312 309 252 314 249 245 245 275 253 333 291 306 2 338 32 33 80 76 91 64 76 92 84 89 86 101 96 82 80 102 144 146 179 242 270 246 233 230 233
221 182 134 264 29 269 231 206 208 262 244 228 292 293 300 278 233 242 332 14 18 104 77 82 80 117 94 82 56 56 57 58 53 52 70 93 86 146 184 200 222 223 212 235
205 143 198 192 187 263 160 243 228 107 278 38 318 335 346 339 286 326 50 69 56 60 95 98 93 95 85 81 67 68 47 42 67 63 42 25 45 87 106 176 193 198 184 179
55 61 132 89 201 214 229 240 223 145 279 304 291 302 330 340 12 264 294 306 101 107 93 97 105 84 65 67 77 90 76 69 63 60 55 41 10 23 32 305 275 244 252 229
11 356 113 140 40 292 209 261 160 176 244 261 334 320 338 290 243 292 303 288 36 132 140 125 94 73 65 63 75 79 72 63 58 57 52 53 50 46 46 21 336 295 274 237
316 263 237 77 175 267 190 253 210 222 246 254 244 262 258 279 280 286 254 236 185 136 127 110 82 65 69 76 86 84 79 73 68 65 63 63 60 57 52 42 47 45 25 232
219 164 228 179 220 236 218 233 225 245 252 258 260 274 264 267 243 268 242 164 157 128 130 120 105 90 84 88 86 89 81 77 78 66 58 56 59 63 64 60 55 53 52 66
262 200 211 42 279 230 233 227 222 233 266 277 274 277 262 264 220 222 224 181 164 156 145 137 129 111 83 55 40 40 47 49 63 75 60 52 53 52 57 62 64 61 65 68
227 165 229 255 277 319 326 215 239 273 290 276 274 272 252 201 160 174 153 149 136 140 154 153 139 143 151 133 66 58 43 35 103 66 44 38 52 58 49 40 51 60 69 75
208 210 171 228 251 245 278 280 337 328 325 307 276 269 288 266 163 181 174 166 153 153 153 150 147 145 153 151 75 37 5 355 354 334 355 39 76 45 24 34 37 57 55 68
Height
1481 1491 1498 1487 1487 1484 1488 1492 1493 1478 1466 1469 1465 1464 1453 1445 1444 1446 1449 1456 1457 1456 1448 1450 1450 1456 1468 1474 1471 1476 1480 1484 1488 1491 1495 1500 1502 1508 1511 1515 1518 1520 1522 1525
1487 1495 1476 1473 1477 1480 1483 1490 1487 1472 1461 1462 1465 1463 1450 1446 1444 1444 1443 1450 1447 1450 1450 1450 1450 1457 1459 1462 1466 1469 1473 1477 1482 1487 1490 1495 1500 1503 1508 1511 1514 1516 1519 1522
1492 1480 1468 1472 1473 1476 1477 1486 1481 1475 1463 1459 1462 1471 1459 1445 1442 1442 1442 1443 1446 1452 1451 1447 1449 1446 1451 1457 1458 1459 1464 1470 1477 1481 1487 1491 1496 1501 1504 1504 1507 1510 1514 1518
1478 1468 1470 1470 1469 1466 1477 1460 1462 1465 1475 1493 1464 1503 1467 1452 1446 1440 1439 1440 1444 1446 1442 1436 1438 1442 1443 1446 1449 1453 1459 1461 1468 1474 1479 1482 1484 1488 1491 1497 1502 1505 1509 1513
1482 1472 1471 1472 1466 1458 1469 1454 1458 1462 1474 1479 1471 1491 1472 1457 1457 1448 1440 1440 1441 1442 1443 1443 1449 1451 1449 1449 1449 1449 1450 1456 1459 1465 1472 1477 1481 1485 1488 1492 1497 1501 1504 1508
1472 1465 1465 1459 1455 1454 1452 1457 1467 1473 1487 1507 1479 1488 1491 1485 1475 1455 1447 1444 1443 1445 1445 1447 1442 1444 1436 1438 1441 1444 1449 1448 1453 1460 1467 1472 1476 1480 1483 1487 1492 1496 1499 1502
1475 1470 1463 1460 1464 1457 1464 1480 1507 1510 1513 1511 1476 1489 1495 1474 1464 1463 1457 1452 1453 1448 1442 1441 1433 1431 1426 1435 1442 1441 1441 1448 1448 1452 1460 1466 1471 1477 1480 1483 1487 1492 1495 1497
1493 1495 1469 1464 1473 1478 1473 1478 1505 1512 1517 1495 1473 1487 1483 1468 1464 1462 1457 1458 1451 1449 1443 1433 1429 1416 1423 1430 1441 1445 1451 1458 1452 1443 1452 1461 1468 1472 1478 1482 1485 1488 1492 1493
1491 1489 1465 1465 1466 1469 1477 1486 1469 1485 1485 1500 1489 1478 1469 1464 1460 1456 1454 1456 1450 1447 1444 1436 1432 1425 1425 1428 1434 1444 1450 1456 1457 1460 1464 1458 1464 1468 1474 1479 1484 1487 1489 1491
1478 1495 1474 1467 1464 1468 1476 1468 1486 1492 1501 1504 1495 1486 1485 1467 1461 1456 1452 1453 1450 1444 1439 1432 1426 1426 1424 1428 1430 1436 1443 1446 1455 1454 1455 1461 1465 1464 1470 1475 1479 1482 1486 1489
1476 1488 1487 1473 1481 1485 1479 1487 1483 1489 1497 1505 1513 1496 1465 1464 1462 1459 1455 1453 1446 1438 1439 1434 1427 1425 1424 1427 1420 1430 1437 1441 1446 1447 1450 1454 1461 1463 1462 1467 1473 1475 1479 1483
1473 1490 1500 1487 1473 1469 1472 1477 1486 1503 1500 1496 1499 1491 1456 1462 1462 1462 1457 1457 1449 1440 1439 1433 1427 1425 1426 1429 1411 1422 1427 1432 1439 1439 1443 1447 1452 1458 1457 1456 1461 1467 1472 1477
1472 1493 1510 1501 1487 1472 1476 1475 1477 1485 1493 1493 1500 1488 1465 1462 1463 1461 1456 1451 1449 1447 1444 1439 1431 1421 1417 1417 1406 1409 1421 1426 1427 1434 1431 1434 1440 1445 1447 1449 1454 1461 1468 1472
1474 1494 1501 1517 1501 1490 1490 1479 1474 1481 1498 1488 1487 1474 1463 1463 1460 1457 1453 1448 1445 1445 1444 1441 1437 1431 1425 1419 1416 1415 1410 1415 1420 1429 1429 1429 1434 1443 1445 1450 1452 1451 1454 1461
1482 1495 1488 1490 1485 1481 1481 1477 1473 1477 1474 1479 1469 1469 1464 1461 1458 1454 1451 1448 1444 1440 1434 1436 1433 1432 1432 1430 1433 1423 1426 1433 1433 1427 1420 1412 1430 1440 1442 1445 1449 1450 1450 1452
1481 1493 1487 1491 1482 1478 1478 1474 1472 1469 1468 1467 1468 1467 1461 1457 1455 1453 1448 1444 1440 1437 1431 1433 1433 1427 1430 1431 1428 1426 1430 1436 1431 1427 1427 1425 1420 1415 1428 1439 1444 1447 1447 1446
1486 1490 1495 1498 1486 1483 1489 1480 1477 1474 1472 1471 1473 1463 1459 1456 1455 1455 1450 1446 1444 1439 1437 1434 1431 1434 1433 1435 1435 1436 1437 1436 1435 1433 1430 1428 1426 1426 1424 1436 1444 1444 1443 1442
1480 1486 1494 1494 1490 1502 1474 1470 1471 1471 1468 1467 1465 1461 1459 1456 1453 1454 1450 1447 1445 1441 1436 1436 1436 1437 1434 1436 1437 1438 1437 1435 1432 1430 1432 1433 1428 1428 1429 1432 1438 1440 1439 1437
1463 1477 1490 1495 1498 1481 1476 1470 1471 1472 1470 1466 1463 1460 1457 1455 1451 1451 1452 1447 1444 1445 1441 1435 1436 1437 1435 1433 1433 1434 1434 1431 1428 1425 1425 1428 1433 1433 1426 1433 1440 1439 1435 1434
1464 1467 1480 1494 1493 1492 1471 1465 1465 1469 1478 1464 1462 1457 1454 1454 1456 1452 1451 1449 1444 1442 1441 1439 1439 1435 1434 1434 1434 1434 1435 1433 1426 1424 1425 1425 1422 1422 1425 1434 1436 1433 1431 1431
1480 1481 1485 1488 1493 1482 1464 1462 1464 1476 1476 1459 1457 1453 1448 1453 1451 1448 1447 1446 1443 1442 1443 1441 1438 1434 1435 1437 1439 1436 1436 1435 1432 1429 1432 1430 1430 1429 1427 1431 1431 1431 1427 1425
1485 1488 1488 1490 1493 1490 1460 1463 1467 1463 1457 1456 1454 1452 1450 1446 1445 1445 1445 1444 1443 1441 1440 1440 1436 1437 1438 1441 1442 1439 1440 1441 1438 1439 1438 1436 1439 1435 1434 1435 1434 1429 1426 1421
1481 1476 1483 1484 1478 1459 1458 1457 1456 1454 1454 1453 1451 1449 1448 1446 1446 1443 1444 1442 1441 1442 1442 1442 1442 1446 1445 1447 1445 1446 1445 1445 1442 1443 1443 1442 1443 1438 1438 1437 1437 1432 1428 1425
1469 1464 1471 1470 1458 1456 1454 1452 1452 1452 1451 1450 1448 1447 1445 1443 1443 1443 1443 1441 1441 1443 1444 1445 1445 1447 1449 1450 1450 1450 1449 1447 1445 1447 1447 1446 1443 1440 1440 1442 1439 1437 1432 1431
1466 1462 1462 1464 1458 1454 1451 1450 1450 1450 1449 1448 1445 1444 1442 1440 1440 1441 1444 1444 1444 1445 1447 1448 1446 1448 1450 1452 1451 1452 1452 1451 1448 1446 1445 1443 1441 1442 1443 1443 1441 1438 1436 1438
1459 1458 1463 1466 1453 1453 1451 1449 1450 1449 1447 1447 1446 1444 1442 1442 1442 1442 1444 1445 1446 1447 1449 1449 1450 1450 1453 1454 1453 1452 1450 1448 1446 1444 1444 1443 1443 1445 1444 1443 1442 1439 1439 1439